QPF
0.00 0.00 0.00 0.00 0.00 0.00 0.00 0.01 0.01 0.01 0.02 0.02 0.05 0.06 0.03 0.02 0.01 0.00 0.00 0.00 0.00 0.00 0.00 0.00 0.00 0.00 0.00 0.00 0.00 0.00 0.00 0.00 0.00 0.00 0.00 0.00 0.00 0.00 0.00 0.00 0.00 0.00 0.00
0.00 0.00 0.00 0.00 0.00 0.00 0.00 0.01 0.01 0.01 0.01 0.02 0.03 0.05 0.04 0.01 0.01 0.00 0.00 0.00 0.00 0.00 0.00 0.00 0.00 0.00 0.00 0.00 0.01 0.00 0.00 0.00 0.00 0.00 0.00 0.00 0.00 0.00 0.00 0.00 0.00 0.00 0.00
0.00 0.00 0.00 0.00 0.00 0.00 0.00 0.00 0.01 0.01 0.01 0.01 0.02 0.04 0.05 0.02 0.01 0.00 0.00 0.00 0.00 0.00 0.00 0.00 0.00 0.00 0.00 0.01 0.01 0.01 0.00 0.00 0.00 0.00 0.00 0.00 0.00 0.00 0.00 0.00 0.00 0.00 0.00
0.00 0.00 0.00 0.00 0.00 0.00 0.00 0.00 0.01 0.02 0.02 0.02 0.02 0.03 0.04 0.01 0.01 0.00 0.00 0.00 0.00 0.00 0.00 0.00 0.00 0.01 0.01 0.00 0.00 0.00 0.00 0.01 0.01 0.00 0.00 0.00 0.00 0.00 0.00 0.00 0.00 0.00 0.00
0.00 0.01 0.00 0.00 0.00 0.00 0.00 0.00 0.01 0.02 0.02 0.02 0.02 0.03 0.03 0.01 0.00 0.00 0.00 0.00 0.00 0.00 0.00 0.00 0.00 0.00 0.00 0.00 0.00 0.00 0.00 0.00 0.00 0.00 0.00 0.00 0.00 0.00 0.01 0.00 0.00 0.00 0.00
0.01 0.01 0.00 0.00 0.00 0.00 0.00 0.00 0.01 0.02 0.02 0.02 0.02 0.03 0.02 0.01 0.00 0.00 0.00 0.00 0.00 0.00 0.00 0.00 0.00 0.00 0.00 0.00 0.00 0.00 0.00 0.00 0.00 0.00 0.00 0.00 0.00 0.00 0.00 0.00 0.00 0.00 0.00
0.01 0.00 0.00 0.00 0.00 0.00 0.00 0.00 0.00 0.02 0.03 0.03 0.02 0.02 0.02 0.01 0.00 0.00 0.00 0.00 0.00 0.00 0.00 0.00 0.00 0.00 0.00 0.00 0.00 0.00 0.00 0.00 0.00 0.00 0.00 0.00 0.00 0.00 0.00 0.01 0.01 0.00 0.00
0.00 0.00 0.00 0.00 0.00 0.00 0.00 0.00 0.00 0.01 0.04 0.05 0.03 0.02 0.02 0.01 0.01 0.01 0.00 0.00 0.00 0.00 0.00 0.00 0.00 0.00 0.00 0.00 0.00 0.00 0.00 0.00 0.00 0.00 0.00 0.00 0.00 0.00 0.00 0.00 0.00 0.00 0.00
0.00 0.00 0.00 0.00 0.00 0.00 0.00 0.00 0.00 0.01 0.02 0.05 0.06 0.04 0.02 0.01 0.01 0.01 0.01 0.00 0.00 0.00 0.00 0.00 0.00 0.00 0.00 0.00 0.00 0.00 0.00 0.00 0.00 0.00 0.00 0.00 0.00 0.00 0.00 0.00 0.00 0.01 0.01
0.00 0.00 0.00 0.00 0.00 0.00 0.00 0.00 0.00 0.00 0.01 0.02 0.05 0.08 0.05 0.02 0.01 0.01 0.01 0.00 0.00 0.00 0.00 0.00 0.00 0.00 0.00 0.00 0.00 0.00 0.00 0.00 0.00 0.00 0.00 0.00 0.00 0.00 0.00 0.01 0.01 0.01 0.01
0.00 0.00 0.00 0.00 0.01 0.01 0.00 0.00 0.00 0.00 0.00 0.01 0.02 0.06 0.09 0.06 0.04 0.02 0.01 0.01 0.00 0.00 0.00 0.00 0.00 0.00 0.00 0.00 0.00 0.00 0.00 0.00 0.00 0.00 0.00 0.00 0.01 0.01 0.01 0.01 0.01 0.01 0.01
0.00 0.00 0.00 0.00 0.00 0.01 0.01 0.00 0.00 0.00 0.00 0.00 0.01 0.02 0.06 0.08 0.07 0.05 0.02 0.01 0.01 0.01 0.00 0.00 0.00 0.00 0.00 0.00 0.00 0.00 0.00 0.00 0.00 0.00 0.01 0.01 0.01 0.01 0.01 0.01 0.01 0.01 0.01
0.00 0.00 0.00 0.00 0.00 0.00 0.01 0.00 0.00 0.00 0.00 0.00 0.00 0.01 0.02 0.04 0.05 0.05 0.06 0.04 0.02 0.01 0.01 0.00 0.00 0.00 0.00 0.00 0.00 0.00 0.00 0.00 0.00 0.01 0.01 0.01 0.00 0.01 0.01 0.01 0.01 0.01 0.00
0.00 0.00 0.00 0.00 0.00 0.00 0.00 0.01 0.01 0.00 0.00 0.00 0.00 0.01 0.01 0.02 0.03 0.04 0.04 0.05 0.04 0.02 0.01 0.01 0.00 0.00 0.00 0.00 0.00 0.00 0.00 0.00 0.00 0.00 0.01 0.01 0.01 0.01 0.01 0.01 0.01 0.01 0.01
0.01 0.00 0.00 0.00 0.00 0.00 0.00 0.00 0.01 0.01 0.00 0.00 0.01 0.01 0.01 0.01 0.02 0.03 0.04 0.05 0.05 0.04 0.02 0.01 0.01 0.01 0.00 0.00 0.00 0.00 0.00 0.00 0.01 0.01 0.01 0.01 0.01 0.01 0.01 0.01 0.01 0.01 0.01
0.01 0.01 0.00 0.00 0.00 0.00 0.00 0.00 0.00 0.01 0.01 0.01 0.01 0.01 0.01 0.01 0.01 0.02 0.04 0.04 0.05 0.04 0.03 0.02 0.01 0.01 0.01 0.00 0.00 0.00 0.01 0.01 0.01 0.01 0.01 0.01 0.01 0.01 0.01 0.01 0.01 0.01 0.01
0.01 0.01 0.01 0.00 0.00 0.00 0.00 0.00 0.00 0.01 0.01 0.01 0.01 0.01 0.01 0.01 0.01 0.02 0.02 0.04 0.04 0.04 0.03 0.02 0.01 0.01 0.01 0.01 0.01 0.01 0.01 0.01 0.01 0.01 0.01 0.01 0.01 0.01 0.01 0.01 0.01 0.01 0.01
0.01 0.01 0.01 0.00 0.00 0.00 0.00 0.00 0.00 0.01 0.01 0.01 0.01 0.01 0.01 0.01 0.01 0.02 0.03 0.03 0.03 0.04 0.03 0.02 0.02 0.01 0.01 0.01 0.01 0.01 0.01 0.01 0.01 0.01 0.00 0.00 0.00 0.00 0.00 0.01 0.01 0.01 0.01
0.00 0.00 0.00 0.00 0.00 0.00 0.00 0.00 0.00 0.01 0.01 0.01 0.02 0.01 0.01 0.01 0.01 0.02 0.02 0.03 0.04 0.04 0.04 0.03 0.03 0.02 0.02 0.02 0.02 0.02 0.02 0.01 0.01 0.01 0.00 0.01 0.01 0.01 0.01 0.01 0.01 0.01 0.01
0.00 0.00 0.00 0.00 0.00 0.00 0.00 0.00 0.00 0.00 0.01 0.02 0.02 0.02 0.02 0.02 0.02 0.02 0.02 0.02 0.03 0.03 0.03 0.03 0.03 0.03 0.02 0.02 0.02 0.02 0.02 0.02 0.01 0.01 0.01 0.02 0.01 0.02 0.02 0.01 0.01 0.01 0.01
0.00 0.00 0.00 0.00 0.00 0.00 0.00 0.00 0.00 0.00 0.01 0.01 0.02 0.02 0.03 0.02 0.02 0.02 0.03 0.03 0.02 0.03 0.03 0.03 0.03 0.03 0.02 0.02 0.02 0.02 0.02 0.02 0.01 0.01 0.01 0.01 0.02 0.02 0.02 0.02 0.01 0.01 0.01
0.00 0.00 0.00 0.00 0.00 0.00 0.00 0.00 0.00 0.00 0.01 0.02 0.02 0.02 0.03 0.02 0.02 0.03 0.04 0.03 0.03 0.03 0.03 0.03 0.03 0.03 0.02 0.02 0.01 0.01 0.01 0.01 0.01 0.01 0.01 0.01 0.02 0.02 0.01 0.01 0.02 0.03 0.03
0.00 0.00 0.00 0.00 0.00 0.00 0.00 0.00 0.00 0.01 0.01 0.01 0.02 0.02 0.03 0.03 0.03 0.03 0.04 0.03 0.03 0.03 0.03 0.03 0.03 0.03 0.03 0.02 0.02 0.02 0.02 0.02 0.02 0.02 0.02 0.02 0.02 0.02 0.02 0.02 0.03 0.03 0.03
0.01 0.01 0.00 0.00 0.00 0.01 0.00 0.00 0.00 0.00 0.01 0.01 0.01 0.02 0.03 0.03 0.03 0.03 0.02 0.02 0.02 0.02 0.02 0.02 0.02 0.03 0.03 0.03 0.02 0.02 0.03 0.03 0.03 0.03 0.03 0.03 0.03 0.03 0.03 0.04 0.04 0.03 0.03
0.01 0.01 0.01 0.01 0.01 0.01 0.00 0.00 0.00 0.00 0.01 0.01 0.01 0.02 0.03 0.03 0.03 0.02 0.02 0.02 0.02 0.02 0.02 0.02 0.03 0.03 0.03 0.03 0.03 0.04 0.03 0.03 0.03 0.03 0.03 0.03 0.03 0.03 0.03 0.03 0.04 0.04 0.04
0.01 0.02 0.01 0.01 0.01 0.01 0.00 0.00 0.00 0.01 0.01 0.01 0.01 0.02 0.03 0.03 0.03 0.02 0.02 0.02 0.02 0.03 0.03 0.03 0.03 0.03 0.03 0.03 0.04 0.04 0.03 0.03 0.03 0.03 0.03 0.03 0.03 0.04 0.04 0.04 0.05 0.04 0.05
MSLP
1004.08 1003.67 1003.38 1003.21 1003.20 1003.34 1003.64 1004.09 1004.67 1005.33 1006.02 1006.70 1007.34 1007.90 1008.38 1008.78 1009.13 1009.45 1009.77 1010.10 1010.45 1010.82 1011.20 1011.58 1011.94 1012.27 1012.56 1012.82 1013.03 1013.21 1013.34 1013.43 1013.47 1013.46 1013.40 1013.29 1013.14 1012.98 1012.81 1012.66 1012.55 1012.49 1012.49
1003.69 1003.26 1002.92 1002.67 1002.55 1002.57 1002.75 1003.09 1003.58 1004.18 1004.84 1005.52 1006.18 1006.79 1007.31 1007.77 1008.16 1008.52 1008.86 1009.20 1009.57 1009.94 1010.33 1010.72 1011.08 1011.42 1011.72 1011.99 1012.22 1012.41 1012.56 1012.68 1012.76 1012.78 1012.76 1012.68 1012.55 1012.40 1012.23 1012.07 1011.93 1011.84 1011.80
1003.55 1003.12 1002.74 1002.42 1002.18 1002.06 1002.09 1002.28 1002.63 1003.12 1003.71 1004.35 1004.99 1005.60 1006.16 1006.64 1007.07 1007.45 1007.81 1008.17 1008.54 1008.93 1009.32 1009.72 1010.09 1010.44 1010.76 1011.04 1011.28 1011.50 1011.69 1011.84 1011.96 1012.04 1012.06 1012.04 1011.96 1011.83 1011.68 1011.52 1011.37 1011.25 1011.18
1003.59 1003.20 1002.80 1002.42 1002.08 1001.81 1001.67 1001.69 1001.88 1002.22 1002.70 1003.25 1003.84 1004.43 1004.97 1005.45 1005.89 1006.28 1006.65 1007.02 1007.40 1007.79 1008.19 1008.60 1008.99 1009.36 1009.70 1010.00 1010.27 1010.52 1010.74 1010.94 1011.11 1011.25 1011.34 1011.38 1011.35 1011.27 1011.15 1011.00 1010.85 1010.72 1010.63
1003.74 1003.40 1003.02 1002.59 1002.16 1001.77 1001.47 1001.32 1001.34 1001.53 1001.86 1002.31 1002.81 1003.33 1003.82 1004.28 1004.69 1005.07 1005.43 1005.80 1006.18 1006.58 1007.00 1007.42 1007.83 1008.22 1008.58 1008.91 1009.22 1009.50 1009.76 1010.01 1010.23 1010.43 1010.58 1010.68 1010.72 1010.70 1010.62 1010.50 1010.37 1010.23 1010.12
1003.93 1003.65 1003.29 1002.84 1002.35 1001.86 1001.44 1001.14 1001.00 1001.04 1001.24 1001.56 1001.95 1002.38 1002.80 1003.20 1003.56 1003.90 1004.24 1004.59 1004.96 1005.37 1005.79 1006.23 1006.67 1007.08 1007.47 1007.83 1008.16 1008.47 1008.77 1009.05 1009.32 1009.57 1009.79 1009.95 1010.05 1010.09 1010.06 1009.98 1009.87 1009.75 1009.65
1004.08 1003.86 1003.52 1003.07 1002.53 1001.98 1001.47 1001.07 1000.81 1000.73 1000.80 1001.00 1001.29 1001.61 1001.95 1002.27 1002.57 1002.86 1003.16 1003.48 1003.84 1004.23 1004.66 1005.11 1005.56 1005.99 1006.40 1006.78 1007.13 1007.46 1007.78 1008.09 1008.39 1008.68 1008.94 1009.15 1009.31 1009.40 1009.43 1009.40 1009.34 1009.25 1009.18
1004.14 1003.95 1003.62 1003.17 1002.62 1002.03 1001.48 1001.02 1000.70 1000.53 1000.52 1000.63 1000.82 1001.05 1001.30 1001.54 1001.77 1002.00 1002.24 1002.52 1002.85 1003.23 1003.64 1004.09 1004.54 1004.98 1005.40 1005.78 1006.13 1006.47 1006.79 1007.11 1007.43 1007.73 1008.02 1008.28 1008.49 1008.64 1008.73 1008.76 1008.75 1008.72 1008.69
1004.06 1003.86 1003.53 1003.07 1002.52 1001.94 1001.38 1000.91 1000.57 1000.37 1000.31 1000.36 1000.48 1000.64 1000.81 1000.98 1001.14 1001.30 1001.49 1001.73 1002.02 1002.36 1002.76 1003.18 1003.62 1004.04 1004.45 1004.82 1005.16 1005.48 1005.80 1006.11 1006.42 1006.74 1007.05 1007.34 1007.59 1007.79 1007.94 1008.05 1008.11 1008.15 1008.19
1003.83 1003.58 1003.22 1002.75 1002.21 1001.64 1001.11 1000.67 1000.35 1000.16 1000.09 1000.11 1000.20 1000.31 1000.43 1000.53 1000.63 1000.74 1000.88 1001.07 1001.31 1001.62 1001.97 1002.36 1002.77 1003.16 1003.53 1003.87 1004.19 1004.49 1004.78 1005.08 1005.38 1005.70 1006.03 1006.34 1006.63 1006.89 1007.11 1007.29 1007.44 1007.56 1007.68
1003.42 1003.10 1002.69 1002.20 1001.67 1001.14 1000.66 1000.27 1000.00 999.84 999.79 999.82 999.89 999.97 1000.05 1000.12 1000.17 1000.24 1000.33 1000.47 1000.67 1000.93 1001.24 1001.58 1001.93 1002.28 1002.61 1002.92 1003.20 1003.47 1003.73 1004.02 1004.32 1004.64 1004.99 1005.33 1005.67 1005.98 1006.27 1006.53 1006.76 1006.97 1007.18
1002.86 1002.45 1001.99 1001.49 1000.97 1000.48 1000.05 999.72 999.50 999.40 999.38 999.41 999.48 999.55 999.60 999.64 999.66 999.69 999.75 999.85 1000.00 1000.22 1000.48 1000.77 1001.08 1001.38 1001.66 1001.93 1002.18 1002.42 1002.68 1002.96 1003.26 1003.60 1003.97 1004.35 1004.73 1005.11 1005.47 1005.80 1006.12 1006.43 1006.72
1002.16 1001.69 1001.19 1000.67 1000.17 999.72 999.35 999.08 998.91 998.84 998.84 998.88 998.94 998.99 999.02 999.03 999.03 999.03 999.06 999.13 999.26 999.43 999.65 999.90 1000.16 1000.42 1000.67 1000.90 1001.14 1001.38 1001.63 1001.92 1002.25 1002.62 1003.02 1003.45 1003.89 1004.32 1004.75 1005.16 1005.56 1005.95 1006.33
1001.38 1000.88 1000.36 999.85 999.38 998.97 998.64 998.41 998.27 998.21 998.21 998.24 998.28 998.30 998.30 998.28 998.25 998.24 998.25 998.31 998.41 998.56 998.74 998.96 999.19 999.42 999.65 999.88 1000.11 1000.36 1000.64 1000.97 1001.34 1001.75 1002.20 1002.68 1003.17 1003.67 1004.16 1004.64 1005.11 1005.57 1006.02
1000.58 1000.08 999.58 999.10 998.67 998.30 998.00 997.79 997.65 997.58 997.55 997.53 997.52 997.50 997.46 997.41 997.36 997.33 997.34 997.38 997.48 997.61 997.79 997.99 998.20 998.43 998.66 998.89 999.15 999.44 999.76 1000.13 1000.56 1001.03 1001.54 1002.08 1002.63 1003.18 1003.73 1004.27 1004.79 1005.31 1005.81
999.82 999.36 998.91 998.48 998.09 997.75 997.48 997.26 997.10 996.99 996.90 996.82 996.74 996.66 996.57 996.49 996.42 996.38 996.38 996.44 996.53 996.68 996.85 997.06 997.28 997.51 997.76 998.02 998.32 998.65 999.03 999.47 999.95 1000.49 1001.07 1001.66 1002.27 1002.88 1003.47 1004.06 1004.62 1005.18 1005.72
999.14 998.76 998.37 998.00 997.66 997.35 997.08 996.85 996.65 996.48 996.31 996.16 996.01 995.86 995.72 995.61 995.52 995.49 995.50 995.56 995.68 995.84 996.03 996.25 996.49 996.75 997.02 997.33 997.67 998.06 998.50 999.00 999.56 1000.16 1000.80 1001.45 1002.11 1002.76 1003.40 1004.01 1004.61 1005.19 1005.74
998.58 998.28 997.97 997.66 997.36 997.07 996.80 996.55 996.30 996.06 995.83 995.60 995.38 995.18 995.00 994.87 994.78 994.75 994.78 994.87 995.01 995.20 995.42 995.66 995.92 996.21 996.52 996.87 997.26 997.70 998.20 998.77 999.39 1000.05 1000.74 1001.44 1002.15 1002.83 1003.50 1004.14 1004.75 1005.33 1005.89
998.13 997.89 997.64 997.39 997.12 996.85 996.58 996.30 996.02 995.73 995.44 995.16 994.90 994.66 994.47 994.33 994.26 994.26 994.32 994.44 994.61 994.83 995.07 995.34 995.63 995.94 996.29 996.67 997.10 997.59 998.15 998.76 999.43 1000.14 1000.88 1001.62 1002.36 1003.07 1003.75 1004.40 1005.01 1005.59 1006.13
997.74 997.55 997.34 997.12 996.88 996.63 996.36 996.07 995.76 995.45 995.14 994.84 994.56 994.33 994.15 994.04 994.00 994.03 994.13 994.30 994.51 994.75 995.02 995.31 995.62 995.95 996.32 996.73 997.19 997.72 998.31 998.97 999.67 1000.42 1001.19 1001.96 1002.71 1003.44 1004.13 1004.78 1005.38 1005.94 1006.45
997.34 997.17 996.99 996.79 996.57 996.33 996.07 995.79 995.49 995.19 994.89 994.61 994.36 994.16 994.02 993.96 993.98 994.06 994.21 994.42 994.66 994.93 995.23 995.53 995.86 996.20 996.59 997.01 997.50 998.05 998.66 999.34 1000.07 1000.84 1001.62 1002.40 1003.16 1003.89 1004.58 1005.21 1005.80 1006.32 1006.80
996.87 996.71 996.54 996.35 996.15 995.93 995.70 995.44 995.18 994.92 994.67 994.44 994.25 994.12 994.05 994.06 994.14 994.29 994.50 994.74 995.02 995.32 995.63 995.95 996.28 996.64 997.04 997.47 997.97 998.53 999.16 999.84 1000.58 1001.35 1002.13 1002.91 1003.67 1004.38 1005.05 1005.66 1006.22 1006.71 1007.14
996.29 996.12 995.95 995.78 995.60 995.42 995.22 995.02 994.82 994.62 994.44 994.30 994.20 994.15 994.17 994.26 994.42 994.63 994.89 995.18 995.49 995.82 996.15 996.48 996.83 997.19 997.60 998.04 998.55 999.12 999.74 1000.43 1001.16 1001.92 1002.68 1003.44 1004.17 1004.86 1005.50 1006.08 1006.59 1007.04 1007.43
995.58 995.42 995.26 995.11 994.96 994.82 994.68 994.55 994.42 994.30 994.21 994.16 994.15 994.20 994.31 994.48 994.71 994.99 995.30 995.64 995.98 996.33 996.69 997.04 997.40 997.79 998.21 998.67 999.18 999.75 1000.38 1001.06 1001.77 1002.50 1003.24 1003.96 1004.65 1005.30 1005.89 1006.42 1006.89 1007.30 1007.64
994.80 994.64 994.51 994.39 994.29 994.20 994.12 994.06 994.00 993.97 993.97 994.00 994.08 994.22 994.41 994.66 994.96 995.29 995.66 996.04 996.42 996.80 997.19 997.57 997.97 998.38 998.82 999.30 999.83 1000.41 1001.03 1001.69 1002.38 1003.08 1003.76 1004.43 1005.07 1005.66 1006.20 1006.68 1007.10 1007.46 1007.77
994.02 993.89 993.79 993.72 993.66 993.63 993.61 993.61 993.62 993.66 993.73 993.84 993.99 994.20 994.45 994.76 995.12 995.50 995.91 996.34 996.77 997.20 997.62 998.05 998.49 998.94 999.42 999.94 1000.49 1001.07 1001.69 1002.33 1002.99 1003.64 1004.27 1004.87 1005.44 1005.96 1006.44 1006.86 1007.24 1007.56 1007.84
Thickness
5712 5715 5716 5717 5717 5716 5716 5717 5716 5714 5711 5708 5705 5702 5700 5699 5697 5695 5693 5689 5686 5682 5678 5675 5672 5668 5664 5661 5658 5655 5651 5647 5643 5639 5638 5638 5637 5635 5632 5629 5626 5623 5619
5704 5707 5710 5710 5711 5713 5714 5714 5714 5712 5711 5710 5707 5704 5701 5698 5696 5693 5690 5688 5684 5681 5677 5674 5671 5666 5662 5659 5656 5652 5648 5644 5639 5636 5634 5634 5635 5633 5629 5626 5622 5619 5615
5696 5700 5702 5704 5706 5707 5709 5710 5711 5710 5709 5707 5703 5699 5696 5694 5691 5690 5688 5687 5683 5680 5677 5673 5669 5665 5661 5658 5655 5650 5645 5642 5637 5634 5632 5630 5631 5631 5627 5623 5619 5615 5611
5689 5691 5694 5697 5700 5703 5704 5705 5707 5707 5706 5703 5700 5698 5697 5696 5696 5693 5690 5686 5682 5679 5675 5672 5668 5664 5661 5657 5654 5649 5644 5640 5636 5630 5628 5628 5628 5623 5623 5620 5615 5611 5607
5681 5684 5687 5690 5694 5696 5697 5699 5701 5702 5702 5700 5699 5696 5696 5697 5695 5692 5688 5685 5681 5678 5674 5670 5666 5663 5660 5656 5652 5648 5643 5639 5635 5630 5625 5621 5617 5615 5614 5614 5612 5607 5603
5674 5677 5681 5683 5686 5689 5690 5692 5694 5696 5697 5697 5696 5695 5696 5695 5692 5690 5687 5683 5680 5676 5673 5669 5665 5662 5659 5655 5651 5646 5641 5637 5634 5630 5625 5620 5616 5612 5609 5608 5607 5605 5601
5667 5671 5674 5676 5679 5681 5683 5685 5687 5690 5692 5692 5693 5694 5694 5692 5690 5689 5686 5682 5679 5676 5672 5667 5664 5661 5657 5653 5648 5644 5640 5635 5631 5628 5624 5619 5616 5612 5608 5604 5602 5599 5595
5658 5661 5665 5668 5671 5674 5676 5679 5681 5684 5686 5687 5688 5689 5689 5687 5687 5686 5684 5681 5679 5676 5672 5666 5662 5659 5655 5650 5645 5641 5637 5633 5629 5624 5620 5616 5612 5607 5603 5599 5594 5591 5589
5646 5652 5656 5659 5663 5666 5669 5672 5674 5677 5679 5681 5682 5682 5682 5682 5683 5682 5679 5678 5676 5673 5668 5663 5658 5655 5651 5647 5643 5639 5634 5630 5625 5621 5616 5611 5607 5602 5597 5593 5588 5582 5581
5634 5639 5645 5649 5653 5656 5660 5663 5666 5668 5671 5673 5674 5675 5676 5677 5677 5675 5673 5673 5671 5667 5663 5659 5655 5651 5647 5643 5639 5635 5631 5626 5622 5617 5612 5607 5602 5597 5591 5586 5581 5576 5573
5620 5626 5632 5637 5641 5644 5647 5651 5654 5657 5660 5662 5665 5666 5667 5668 5668 5667 5667 5666 5664 5661 5658 5655 5650 5646 5643 5639 5634 5631 5627 5622 5617 5612 5607 5603 5597 5591 5586 5580 5575 5570 5564
5609 5614 5619 5624 5628 5631 5635 5638 5642 5645 5648 5651 5653 5655 5656 5658 5659 5660 5660 5659 5656 5654 5652 5648 5645 5641 5638 5634 5630 5626 5622 5617 5613 5608 5602 5597 5591 5586 5581 5575 5569 5564 5558
5598 5602 5607 5611 5615 5619 5623 5627 5631 5633 5635 5638 5641 5643 5645 5647 5650 5651 5651 5650 5648 5646 5644 5641 5639 5635 5632 5628 5625 5621 5616 5612 5608 5603 5598 5593 5586 5581 5575 5569 5564 5558 5552
5585 5589 5593 5598 5602 5606 5610 5614 5618 5621 5623 5625 5629 5631 5634 5636 5638 5640 5640 5640 5640 5638 5636 5634 5632 5629 5624 5621 5617 5613 5609 5605 5601 5597 5592 5587 5582 5577 5570 5564 5558 5551 5544
5573 5576 5580 5585 5589 5594 5598 5601 5605 5608 5610 5613 5616 5619 5622 5624 5626 5628 5629 5630 5630 5630 5628 5626 5623 5620 5617 5614 5610 5606 5601 5597 5593 5589 5585 5580 5575 5570 5564 5558 5552 5544 5537
5562 5565 5568 5572 5576 5580 5585 5588 5592 5595 5598 5601 5605 5608 5610 5612 5614 5616 5618 5618 5619 5619 5618 5616 5614 5612 5609 5606 5601 5598 5593 5589 5585 5581 5577 5572 5565 5560 5554 5549 5544 5538 5531
5551 5553 5557 5560 5564 5568 5571 5575 5579 5583 5586 5589 5592 5595 5597 5599 5602 5604 5606 5607 5608 5608 5608 5607 5605 5603 5601 5596 5592 5587 5584 5580 5577 5573 5568 5562 5557 5551 5545 5540 5533 5527 5521
5540 5543 5546 5549 5553 5556 5559 5562 5566 5570 5573 5576 5579 5582 5584 5587 5589 5591 5594 5596 5596 5597 5598 5597 5595 5593 5591 5586 5582 5576 5573 5570 5567 5563 5559 5554 5549 5543 5537 5530 5524 5518 5512
5528 5531 5535 5538 5542 5545 5547 5550 5554 5557 5560 5562 5565 5568 5570 5573 5576 5578 5581 5583 5584 5584 5584 5584 5583 5582 5581 5576 5572 5566 5563 5560 5557 5553 5549 5544 5539 5534 5527 5520 5513 5507 5501
5517 5520 5523 5527 5530 5533 5535 5538 5542 5545 5547 5549 5551 5554 5557 5559 5563 5566 5568 5569 5570 5571 5571 5571 5571 5570 5568 5564 5560 5555 5553 5550 5546 5541 5537 5532 5528 5522 5517 5511 5505 5498 5491
5507 5509 5511 5514 5517 5520 5523 5526 5530 5532 5534 5535 5537 5540 5543 5546 5549 5552 5553 5555 5557 5558 5558 5558 5558 5557 5556 5552 5548 5544 5542 5539 5535 5530 5526 5521 5515 5510 5505 5500 5496 5490 5481
5495 5497 5500 5503 5505 5506 5509 5514 5516 5517 5519 5521 5524 5527 5529 5532 5534 5537 5539 5541 5543 5543 5544 5545 5544 5544 5542 5540 5536 5532 5529 5527 5523 5519 5514 5509 5503 5498 5492 5488 5483 5476 5468
5483 5484 5486 5489 5492 5493 5495 5499 5501 5502 5505 5507 5510 5513 5516 5519 5522 5523 5525 5527 5529 5530 5531 5532 5532 5532 5530 5528 5524 5520 5516 5513 5510 5506 5501 5495 5490 5484 5479 5474 5468 5462 5455
5470 5471 5473 5476 5479 5480 5482 5484 5486 5487 5491 5494 5497 5500 5503 5506 5509 5510 5512 5515 5517 5519 5519 5519 5520 5520 5519 5516 5513 5508 5503 5499 5495 5490 5485 5480 5475 5470 5465 5460 5454 5448 5443
5455 5457 5459 5462 5465 5466 5468 5470 5471 5473 5477 5480 5483 5486 5489 5492 5495 5498 5500 5502 5505 5506 5508 5509 5509 5507 5508 5507 5504 5500 5494 5489 5484 5477 5471 5466 5462 5457 5452 5446 5440 5434 5428
5443 5444 5446 5448 5451 5453 5455 5456 5458 5460 5463 5466 5469 5471 5474 5477 5480 5483 5486 5487 5490 5491 5493 5495 5495 5496 5495 5493 5490 5487 5484 5478 5471 5466 5462 5457 5452 5447 5441 5435 5428 5422 5416